FENGYUN 1C DEB

Satellite information

Favourite Embed

Satellite Type and Status

DEBRISIN ORBIT

Key statistics

Satellite FENGYUN 1C DEB at a glance.

Uptime

9494

Days in orbit

Revolutions

≈ 14.1

Per day

Orbit

SSO

Sun Synchronous Orbit

Inclination

99.2

Latest

Satellite identification and parameters

Extended collection of information and parameters for FENGYUN 1C DEB.

Object identification

Identified? True

Debris? True

Object name: FENGYUN 1C DEB

International designator: 1999-025CMV

Object number (NORAD): 31944

Object ID (CCSDS): 31944

Country: PEOPLES REPUBLIC OF CHINA (PRC)

Current information (Y/N): Y

RCS size: SMALL

Orbital parameters

Period: 102.05 minutes

Inclination: 99.1808 deg

SMA: 7233.828 km

Apoapsis: 965.874 km

Periapsis: 745.512 km

RAAN: 265.2872 deg

Eccentricy: 0.0152313

Argument of periapsis: 269.6331 deg

Mean anomaly: 214.065 deg

Mean motion: 14.11076262 rev/day

Mean motion (dot): 0.00001902 rev/day2

B* drag term: 0.00097182 1/REarth

Two-line elements (TLE)

Creation date: May 3, 2025, 5:28 p.m.

Reference frame: TEME

Reference center: EARTH

Epoch: May 3, 2025, 5:14 a.m. UTC

TLE line 0: 0 FENGYUN 1C DEB

TLE line 1: 1 31944U 99025CMV 25123.21829954 .00001902 00000-0 97182-3 0 9991

TLE line 2: 2 31944 99.1808 265.2872 0152313 269.6331 214.0650 14.11076262597576

Live tracking on map

Real-time ground track for satellite FENGYUN 1C DEB.

In-orbit conjunctions

A list of the most updated potential collisions computed for object FENGYUN 1C DEB.

Target Orbit TCA Probability of collision Miss distance Type
WEOS SSO 2025-04-15 04:26:23 0.0003877345 273.0 (m) PAYLOAD
H-1 R/B SSO 2025-04-08 19:44:53 0.0001727498 485.0 (m) ROCKET BODY
COSMOS 1850 LEO 2025-01-01 19:59:40 0.0002318434 240.0 (m) PAYLOAD
COSMOS 2135 LEO 2024-11-28 18:15:39 0.0002225281 388.0 (m) PAYLOAD

Associated space launch

Chinese polar orbiting meteorological satellite

FENGYUN 1C DEB was lifted into orbit during the mission ‘Long March 4B | Feng Yun 1C’, on board a Long March 4B space rocket.

The launch took place on May 10, 1999, 1:33 a.m. from Launch Complex 7.

For more information about the launch, click the button.

Launch to space Long March 4B | Feng Yun 1C
Long March 4B | Feng Yun 1C

Agency: N/A

Status: Launch Successful

Launch date: May 10, 1999, 1:33 a.m. UTC

Rocket: Long March 4B

Launch pad: Launch Complex 7

Location: Taiyuan Satellite Launch Center, People's Republic of China

...

Latest news about this satellite

There are no fresh news available about this satellite. Check back as we update our databases every day.


Newsletter sign-up

Weekly statistics, charts and insights to help you stay on top of the space industry.